Location: Newark
(13.8117°N, 3.6025°W)
Time: 17:57:25
(UTC+00:00)

Vanguard 2 - Pass Details

Date: 30 August 2019
Orbit: 554 x 2937 km, 32.9° (Epoch: 15 October)

Event Time Altitude Azimuth Distance (km) Brightness Sun altitude
Rises 07:21:43 0° 229° (SW) 3,548 10.5 18.2°
Reaches altitude 10° 07:24:44 10° 225° (SW) 2,327 9.6 18.9°
Maximum altitude 07:29:42 53° 148° (SSE) 753 8.1 20.1°
Drops below altitude 10° 07:33:35 10° 70° (ENE) 1,832 11.2 21.1°
Sets 07:35:43 0° 65° (ENE) 2,712 11.6 21.6°
